Regional Weather Roundup
Issued by NWS Goodland, KS

Home | Current Version | Previous Version | Text Only | Print | Product List | Glossary Off
Versions: 1 2 3 4 5 6 7 8 9 10 11 12 13 14 15 16 17 18 19 20 21 22 23 24 25 26 27 28 29 30 31 32 33 34 35 36 37 38 39 40 41 42 43 44 45 46 47 48 49 50

000
ASUS43 KGLD 241208
RWRGLD

GOODLAND FORECAST AREA HOURLY WEATHER ROUNDUP
NATIONAL WEATHER SERVICE GOODLAND KS
500 AM MST FRI NOV 24 2017

...OFFICIAL OBSERVATIONS...

CITY           SKY/WX    TMP DP  RH WIND       PRES   REMARKS
GOODLAND KS    CLOUDY    44  32  62 W8        29.76R
HILL CITY KS   PTCLDY    46  37  71 W7        29.70F
IMPERIAL NEB   CLOUDY    50  30  46 W12       29.73S
MCCOOK NEB     CLOUDY    47  35  63 W12       29.69F
AKRON CO       CLOUDY    47  23  38 W7        29.80F
BURLINGTON CO  CLOUDY    43  30  60 W9        29.79R
LIMON CO       CLOUDY    39  23  52 N7        29.86S
$$

...UNOFFICIAL OBSERVATIONS...

CITY           SKY/WX    TMP DP  RH WIND       PRES   REMARKS
COLBY KS       CLOUDY    43  36  75 NW10      29.76R
LENORA KS        N/A     54  32  43 W7          N/A
NORTON KS      CLEAR     45  34  65 W9        29.68
SHARON SPRINGS   N/A     40  33  77 W8          N/A
KIT CARSON CO    N/A     36  29  74 CALM        N/A
YUMA CO        FAIR      41  30  65 W10       29.79F
$$




USA.gov is the U.S. government's official web portal to all federal, state and local government web resources and services.